TimeMDT,TemperatureF,Dew PointF,Humidity,Sea Level PressureIn,VisibilityMPH,Wind Direction,Wind SpeedMPH,Gust SpeedMPH,PrecipitationIn,Events,Conditions,WindDirDegrees,DateUTC
12:53 AM,34.0,28.0,79,30.07,10.0,WNW,5.8,-,N/A,,Clear,290,2013-03-14 06:53:00
1:53 AM,34.0,28.9,82,30.08,10.0,WNW,9.2,-,N/A,,Clear,300,2013-03-14 07:53:00
2:53 AM,32.0,28.0,85,30.08,10.0,WNW,8.1,-,N/A,,Clear,290,2013-03-14 08:53:00
3:53 AM,36.0,30.0,79,30.09,10.0,NW,10.4,-,N/A,,Clear,310,2013-03-14 09:53:00
4:53 AM,33.1,28.0,82,30.09,10.0,Calm,Calm,-,N/A,,Clear,0,2013-03-14 10:53:00
5:53 AM,35.1,30.0,82,30.12,10.0,WNW,10.4,-,N/A,,Clear,300,2013-03-14 11:53:00
6:53 AM,33.1,28.9,85,30.15,10.0,West,8.1,-,N/A,,Clear,280,2013-03-14 12:53:00
7:53 AM,34.0,28.9,82,30.17,10.0,WNW,5.8,-,N/A,,Clear,290,2013-03-14 13:53:00
8:53 AM,45.0,34.0,65,30.14,10.0,West,4.6,-,N/A,,Clear,280,2013-03-14 14:53:00
9:53 AM,54.0,33.1,45,30.13,10.0,West,11.5,-,N/A,,Clear,260,2013-03-14 15:53:00
10:53 AM,57.9,33.1,39,30.12,10.0,West,17.3,-,N/A,,Clear,270,2013-03-14 16:53:00
11:53 AM,63.0,30.9,30,30.09,10.0,West,12.7,-,N/A,,Clear,280,2013-03-14 17:53:00
12:53 PM,64.9,28.9,26,30.08,10.0,West,12.7,24.2,N/A,,Clear,270,2013-03-14 18:53:00
1:53 PM,66.9,30.0,25,30.04,10.0,West,17.3,21.9,N/A,,Clear,270,2013-03-14 19:53:00
2:53 PM,66.9,28.9,24,30.01,10.0,West,11.5,-,N/A,,Clear,280,2013-03-14 20:53:00
3:53 PM,68.0,28.9,23,29.99,10.0,West,12.7,23.0,N/A,,Clear,270,2013-03-14 21:53:00
4:53 PM,66.9,28.0,23,30.00,10.0,WNW,16.1,-,N/A,,Clear,300,2013-03-14 22:53:00
5:53 PM,62.1,30.0,30,30.00,10.0,NW,9.2,-,N/A,,Clear,320,2013-03-14 23:53:00
6:53 PM,57.0,32.0,39,30.00,10.0,North,5.8,-,N/A,,Mostly Cloudy,360,2013-03-15 00:53:00
7:53 PM,55.0,32.0,42,30.00,10.0,NE,11.5,-,N/A,,Overcast,40,2013-03-15 01:53:00
8:53 PM,46.9,37.0,68,29.99,10.0,NE,16.1,-,N/A,,Mostly Cloudy,50,2013-03-15 02:53:00
9:53 PM,41.0,34.0,76,30.01,10.0,NNE,9.2,21.9,N/A,,Overcast,30,2013-03-15 03:53:00
10:53 PM,37.0,32.0,82,30.02,10.0,NE,12.7,16.1,N/A,,Overcast,40,2013-03-15 04:53:00
11:53 PM,35.1,30.9,85,30.01,6.0,NNE,5.8,-,N/A,,Overcast,30,2013-03-15 05:53:00